[[{"header":{"parameterUnit":"m.s-1","parameterCategory":1,"la1":30.2991,"la2":30.254,"lo1":-89.0895,"lo2":-89.0444,"dy":0.0017,"dx":0.0017,"nx":28,"ny":28,"refTime":"2024-06-17T21:00:00:Z","depth":0,"parameterNumber":2,"parameterNumberName":"U-component_of_WINDS"},"data":[0,0,0,0,0,0,0,0,0,0,0,0,0,0,0,0,0,0,0,0,0,0,0,0,0,0,0,0,0,0,0,0,0,0,0,0,0,0,0,0,0,0,0,0,0,0,0,0,0,0,0,0,0,0,0,0,0,0,-9.3951,-9.3951,0,-9.396,-9.396,-9.396,-9.3694,-9.3687,-9.368,-9.3673,-9.3682,-9.3689,-9.3695,0,0,0,0,0,0,0,0,0,0,0,0,0,-9.3704,-9.371,-9.3951,-9.3951,-9.3951,-9.396,-9.396,-9.396,-9.3695,-9.3686,-9.3678,-9.367,-9.368,-9.3688,-9.3696,0,0,0,0,0,0,0,0,0,0,0,0,0,-9.3773,-9.3712,-9.3951,-9.382,-9.3808,-9.396,-9.396,-9.396,-9.3697,-9.3686,-9.3675,-9.3666,-9.3677,-9.3687,-9.3697,-9.3974,0,0,-9.3728,-9.3733,0,0,0,0,0,0,0,0,-9.3769,-9.3782,-9.3839,-9.3829,-9.3817,-9.3815,-9.3876,-9.3965,-9.37,-9.3739,-9.3673,-9.366,-9.3735,-9.374,-9.3764,-9.3974,-9.3975,-9.3729,-9.3736,-9.374,-9.3743,0,0,0,0,0,0,0,-9.3765,-9.378,-9.3954,-9.384,-9.3827,-9.3761,-9.3759,-9.3891,-9.3797,-9.3735,-9.3716,-9.372,-9.3726,-9.3755,-9.3763,-9.3975,-9.3729,-9.3738,-9.3745,-9.3749,-9.4408,-9.4419,0,0,0,0,0,0,-9.3778,-9.3778,-9.3954,-9.3955,-9.3766,-9.3774,-9.3771,-9.3826,-9.3794,-9.3779,-9.3729,-9.3708,-9.3743,-9.3751,-9.3762,-9.408,-9.374,-9.375,-9.3756,-9.4397,-9.4411,-9.4423,0,0,0,0,0,0,-9.3774,-9.3796,-9.3954,-9.3861,-9.3876,-9.3789,-9.3853,-9.3832,-9.386,-9.379,-9.3772,-9.3776,-9.3735,-9.3748,-9.3922,-9.4076,-9.3754,-9.3764,-9.4383,-9.4401,-9.4417,-9.4721,0,0,0,0,0,0,-9.3768,-9.3796,-9.3901,-9.3865,-9.3882,-9.4115,-9.3863,-9.384,-9.3879,-9.3851,-9.3829,-9.3816,-9.3727,-9.3908,-9.3933,-9.4085,-9.3772,-9.4369,-9.4391,-9.4411,-9.4696,-9.4746,-9.4788,0,0,0,0,0,-9.376,-9.3987,-9.3907,-9.393,-9.4011,-9.4124,-9.4133,-9.4027,-9.3892,-9.3996,-9.3951,-9.3816,-9.4058,-9.3928,-9.3953,-9.4111,-9.4359,-9.4385,-9.441,-9.4676,-9.4736,-9.4787,0,0,0,0,0,0,-9.4042,-9.3979,-9.3891,-9.4113,-9.4126,-9.4079,-9.4206,-9.4096,-9.4147,-9.4118,-9.3985,-9.3983,-9.4178,-9.4163,-9.402,-9.4376,-9.4184,-9.4216,-9.4377,-9.4434,-9.448,-9.4477,-9.378,0,0,0,0,0,-9.4131,-9.4228,-9.4168,-9.437,-9.4381,-9.4294,-9.4339,-9.4257,-9.4264,-9.4268,-9.4236,-9.4249,-9.4326,-9.438,-9.4449,-9.4695,-9.4684,-9.4816,-9.4862,-9.49,-9.4927,-9.5052,-9.5109,-9.4507,-9.4506,-9.4506,0,0,-9.4313,-9.4291,-9.4361,-9.4426,-9.4426,-9.4529,-9.43,-9.4419,-9.4493,-9.4286,-9.4447,-9.4426,-9.4431,-9.4641,-9.4733,-9.4634,-9.5092,-9.4933,-9.4964,-9.497,-9.5084,-9.5142,-9.5192,-9.4524,-9.4521,-9.4518,0,0,-9.4697,-9.4693,-9.4858,-9.4863,-9.4866,-9.4807,-9.4848,-9.4818,-9.4794,-9.4955,-9.48,-9.4888,-9.5026,-9.5035,-9.5058,-9.5447,-9.5324,-9.5474,-9.5712,-9.5836,-9.5883,-9.5924,-9.6059,-9.6109,-9.5503,-9.5503,-9.5504,0,-9.4923,-9.5072,-9.4957,-9.5086,-9.5118,-9.4937,-9.5102,-9.5113,-9.5139,-9.5165,-9.5056,-9.5223,-9.5215,-9.5423,-9.5518,-9.5545,-9.5584,-9.5473,-9.5886,-9.5926,-9.5963,-9.6089,-9.6141,-9.5521,-9.5519,-9.5517,-9.5516,0,-9.5348,-9.5454,-9.5587,-9.5616,-9.5663,-9.5811,-9.5717,-9.578,-9.5695,-9.5647,-9.5811,-9.5795,-9.5855,-9.59,-9.5818,-9.6096,-9.6035,-9.5909,-9.5712,-9.604,-9.6156,-9.6204,-9.5546,-9.554,-9.5535,-9.553,0,0,-9.5906,-9.587,-9.592,-9.5929,-9.592,-9.5999,-9.6139,-9.6197,-9.6251,-9.6277,-9.6387,-9.6509,-9.6392,-9.6418,-9.6336,-9.6446,-9.675,-9.6304,-9.6302,-9.6383,-9.7051,-9.7142,-9.72,-9.6671,-9.668,-9.6687,-9.7048,0,-9.6274,-9.6507,-9.6408,-9.665,-9.6745,-9.6575,-9.6695,-9.6703,-9.6663,-9.6737,-9.6693,-9.6779,-9.662,-9.6634,-9.6736,-9.6692,-9.6881,-9.6665,-9.6769,-9.6774,-9.6767,-9.7261,-9.7358,-9.77,-9.7094,-9.7102,-9.7107,0,-9.6733,-9.6776,-9.7028,-9.7,-9.7036,-9.7146,-9.719,-9.7265,-9.727,-9.7233,-9.7263,-9.7157,-9.7289,-9.71,-9.7279,-9.7134,-9.7172,-9.7158,-9.7168,-9.7169,-9.6956,-9.727,-9.7807,-9.7857,-9.7179,-9.7173,-9.7168,0,-9.7108,-9.723,-9.7394,-9.7409,-9.7382,-9.7463,-9.7456,-9.745,-9.7491,-9.7531,-9.7556,-9.7613,-9.7642,-9.7688,-9.7599,-9.7469,-9.779,-9.7593,-9.776,-9.7763,-9.783,-9.7826,-9.8375,-9.7866,-9.7865,-9.7864,-9.7863,0,-9.7526,-9.7685,-9.7562,-9.7663,-9.7836,-9.7722,-9.7897,-9.7871,-9.7868,-9.796,-9.782,-9.7909,-9.7789,-9.7867,-9.78,-9.7956,-9.7973,-9.7945,-9.7923,-9.7954,-9.7957,-9.7972,-9.7944,-9.7878,-9.7875,-9.7872,-9.787,0,-9.7971,-9.7895,-9.8063,-9.8024,-9.8019,-9.8148,-9.8114,-9.8205,-9.8157,-9.8275,-9.8297,-9.822,-9.8305,-9.8222,-9.8303,-9.8257,-9.8466,-9.8413,-9.8463,-9.8446,-9.8616,-9.8599,-9.9189,-9.9259,-9.8711,-9.8717,-9.8721,0,-9.8239,-9.8357,-9.8332,-9.8383,-9.8384,-9.847,-9.851,-9.8404,-9.8452,-9.8467,-9.8557,-9.863,-9.8681,-9.8825,-9.8776,-9.8836,-9.878,-9.8983,-9.8788,-9.8814,-9.8776,-9.8768,-9.8777,-9.9021,-9.9027,-9.9033,-9.9037,0,-9.8722,-9.8678,-9.8742,-9.8795,-9.8847,-9.8883,-9.8908,-9.8959,-9.8849,-9.8911,-9.8995,-9.9036,-9.9117,-9.919,-9.9236,-9.9227,-9.9114,-9.91,-9.914,-9.9169,-9.9191,-9.9176,-9.8565,-9.9085,-9.908,-9.9077,-9.9074,-9.9072,-9.9082,-9.9178,-9.9174,-9.925,-9.9258,-9.9285,-9.9367,-9.9329,-9.9398,-9.9454,-9.9389,-9.9492,-9.9493,-9.9542,-9.9548,-9.9626,-9.954,-9.9601,-9.9615,-9.963,-9.9653,-9.9185,-9.9635,-9.9634,-9.9632,-9.9631,-9.963,0,-9.9552,-9.9542,-9.9613,-9.9652,-9.9712,-9.9602,-9.9624,-9.9681,-9.9773,-9.9784,-9.9838,-9.9934,-10.0005,-9.9963,-10.0023,-10.0093,-10.0043,-10.0112,-10.0103,-10.0102,-9.9729,-9.9685,-10.0152,-10.0152,-10.0152,-10.0152,-10.0152,-10.0152,-9.9803,-9.9958,-9.9915,-10.0073,-10.0061,-10.0159,-10.0181,-10.0204,-10.0212,-10.0326,-10.0383,-10.0356,-10.0345,-10.0403,-10.0463,-10.0448,-10.0475,-10.0562,-10.0529,-10.018,-10.0129,-10.0079,-10.0037,-10.0571,-10.0571,-10.0894,-10.0898,-10.09]},{"header":{"parameterUnit":"m.s-1","parameterCategory":1,"la1":30.2991,"la2":30.254,"lo1":-89.0895,"lo2":-89.0444,"dy":0.0017,"dx":0.0017,"nx":28,"ny":28,"refTime":"2024-06-17T21:00:00:Z","depth":0,"parameterNumber":3,"parameterNumberName":"V-component_of_WINDS"},"data":[0,0,0,0,0,0,0,0,0,0,0,0,0,0,0,0,0,0,0,0,0,0,0,0,0,0,0,0,0,0,0,0,0,0,0,0,0,0,0,0,0,0,0,0,0,0,0,0,0,0,0,0,0,0,0,0,0,0,2.6624,2.6624,0,2.6653,2.6653,2.6653,2.6576,2.6574,2.6571,2.6569,2.6598,2.6601,2.6604,0,0,0,0,0,0,0,0,0,0,0,0,0,2.6501,2.6504,2.6624,2.6624,2.6624,2.6653,2.6653,2.6654,2.6577,2.6574,2.6571,2.6568,2.6597,2.66,2.6604,0,0,0,0,0,0,0,0,0,0,0,0,0,2.6545,2.6505,2.6624,2.6589,2.6587,2.6653,2.6653,2.6654,2.6577,2.6574,2.657,2.6567,2.6596,2.66,2.6604,2.6704,0,0,2.6618,2.662,0,0,0,0,0,0,0,0,2.6542,2.6549,2.6594,2.6592,2.6589,2.6607,2.662,2.6671,2.6578,2.6581,2.6569,2.6565,2.6604,2.6607,2.6621,2.6706,2.6707,2.6619,2.6621,2.6623,2.6624,0,0,0,0,0,0,0,2.654,2.6548,2.6635,2.6595,2.6592,2.6573,2.6575,2.663,2.6612,2.658,2.6575,2.6579,2.6602,2.6616,2.6621,2.6707,2.6618,2.6622,2.6625,2.6627,2.6877,2.6881,0,0,0,0,0,0,2.6541,2.6546,2.6634,2.6636,2.6556,2.6578,2.658,2.6605,2.6611,2.6609,2.6582,2.6576,2.6611,2.6616,2.6621,2.6739,2.6623,2.6627,2.663,2.6873,2.6878,2.6882,0,0,0,0,0,0,2.6539,2.655,2.6633,2.6589,2.6599,2.6584,2.6612,2.6607,2.6622,2.6613,2.6609,2.6601,2.6608,2.6615,2.6685,2.6739,2.6629,2.6634,2.6869,2.6875,2.688,2.6975,0,0,0,0,0,0,2.6535,2.6549,2.6587,2.6591,2.6601,2.6696,2.6615,2.6611,2.663,2.6622,2.6629,2.6627,2.6606,2.6678,2.6689,2.6743,2.6637,2.6864,2.6871,2.6878,2.6967,2.6983,2.6998,0,0,0,0,0,2.6531,2.6612,2.6589,2.66,2.6648,2.6699,2.6705,2.6679,2.6635,2.6673,2.6667,2.6627,2.6732,2.6686,2.6698,2.6754,2.686,2.6869,2.6878,2.696,2.698,2.6997,0,0,0,0,0,0,2.6614,2.6612,2.6586,2.6671,2.6686,2.6686,2.6732,2.6701,2.6729,2.6719,2.6686,2.6688,2.6764,2.6766,2.6715,2.6852,2.6788,2.68,2.6847,2.6866,2.6881,2.6878,2.6641,0,0,0,0,0,2.6642,2.6684,2.668,2.6755,2.6764,2.6747,2.6768,2.6748,2.6762,2.6767,2.6767,2.6782,2.6818,2.6842,2.6875,2.6968,2.6968,2.7012,2.7028,2.704,2.705,2.7099,2.7119,2.6911,2.6911,2.6911,0,0,2.67,2.6704,2.6732,2.6771,2.678,2.6824,2.6753,2.6802,2.6834,2.6775,2.684,2.6841,2.6855,2.6937,2.6973,2.6941,2.7108,2.7052,2.7062,2.7064,2.711,2.713,2.7148,2.6917,2.6916,2.6915,0,0,2.6828,2.6836,2.6899,2.691,2.6926,2.6915,2.693,2.6936,2.6934,2.7,2.6956,2.6994,2.7057,2.707,2.7084,2.722,2.7184,2.7232,2.7311,2.736,2.7376,2.7391,2.7438,2.7456,2.7242,2.7243,2.7243,0,2.6898,2.6962,2.6935,2.6988,2.7007,2.6956,2.702,2.7032,2.7058,2.7072,2.7036,2.7115,2.7122,2.7205,2.7239,2.7253,2.7269,2.723,2.7376,2.739,2.7403,2.7448,2.7467,2.7248,2.7248,2.7247,2.7247,0,2.7047,2.7093,2.7143,2.7169,2.7194,2.7252,2.7234,2.7262,2.724,2.7233,2.7301,2.7307,2.7341,2.736,2.7338,2.7441,2.7421,2.7382,2.7317,2.7429,2.7471,2.7488,2.7256,2.7254,2.7253,2.7251,0,0,2.7225,2.7238,2.7256,2.7268,2.7283,2.7318,2.7374,2.7408,2.7433,2.7453,2.7499,2.7555,2.7519,2.7536,2.7516,2.7559,2.7666,2.7514,2.7514,2.7541,2.778,2.7808,2.7829,2.7643,2.7647,2.7649,2.7778,0,2.7351,2.7448,2.7426,2.7522,2.7564,2.7518,2.7567,2.7582,2.7578,2.7613,2.7608,2.7648,2.7598,2.7608,2.7649,2.7645,2.7713,2.7635,2.7685,2.7688,2.7681,2.7851,2.7881,2.8002,2.7795,2.7797,2.7799,0,2.7509,2.7536,2.7636,2.7646,2.7662,2.7707,2.7737,2.7772,2.7788,2.7782,2.7802,2.7774,2.7831,2.7768,2.7845,2.7792,2.7812,2.7814,2.7818,2.782,2.7749,2.7856,2.804,2.8058,2.7825,2.7823,2.7821,0,2.7628,2.769,2.7757,2.7769,2.7782,2.7814,2.7821,2.7834,2.7856,2.7882,2.7896,2.7929,2.7947,2.7973,2.7955,2.7911,2.8035,2.7971,2.8031,2.8032,2.8058,2.8056,2.8246,2.8074,2.8073,2.8073,2.8073,0,2.7769,2.7832,2.7811,2.7852,2.7922,2.7897,2.7967,2.7968,2.798,2.8021,2.7985,2.8024,2.7999,2.8036,2.8023,2.8089,2.8097,2.8094,2.8089,2.8096,2.8097,2.8107,2.8098,2.8078,2.8077,2.8076,2.8075,0,2.7912,2.79,2.7971,2.7978,2.7982,2.8033,2.8038,2.8077,2.8072,2.8124,2.8135,2.8126,2.8169,2.8154,2.82,2.8191,2.8274,2.8259,2.8269,2.8265,2.8326,2.832,2.8528,2.8554,2.8366,2.8368,2.8369,0,2.8002,2.8049,2.8062,2.8087,2.8097,2.8138,2.8161,2.814,2.8165,2.8188,2.8225,2.8264,2.8295,2.8365,2.8362,2.8397,2.8382,2.8453,2.8387,2.8393,2.8382,2.8378,2.8383,2.8465,2.8467,2.8469,2.847,0,2.8162,2.8155,2.819,2.8224,2.8252,2.8277,2.8299,2.8322,2.8302,2.8333,2.8376,2.84,2.8448,2.8487,2.8519,2.8526,2.8495,2.8492,2.8507,2.8514,2.8517,2.8515,2.8303,2.8486,2.8485,2.8483,2.8483,2.8482,2.8281,2.8321,2.8337,2.8377,2.8392,2.8414,2.8451,2.8451,2.8487,2.8524,2.8509,2.856,2.8576,2.8616,2.8627,2.8666,2.8639,2.8662,2.8667,2.8673,2.868,2.8513,2.8672,2.8672,2.8671,2.8671,2.8671,0,2.8438,2.8447,2.8485,2.8517,2.8549,2.8519,2.8542,2.8571,2.8616,2.8634,2.8665,2.8716,2.8755,2.8757,2.8793,2.8824,2.8811,2.8834,2.8831,2.8833,2.8703,2.8685,2.8844,2.8844,2.8844,2.8844,2.8844,2.8844,2.8524,2.8591,2.8586,2.866,2.8668,2.8717,2.8733,2.8753,2.8768,2.8826,2.8859,2.886,2.8872,2.891,2.8944,2.8944,2.8958,2.8987,2.8981,2.8859,2.8842,2.8825,2.8808,2.8991,2.8991,2.9107,2.9108,2.9109]}]]